This is the latest recevied weather packets stored in our database for station/object IT9FBN-3. If no packets are shown the sender has not sent any weather packets the latest 10 day(s).
| Time | Temp. | Humidity | Pressure | Rain* | Wind** | Luminosity | Snow |
|---|---|---|---|---|---|---|---|
| 1778231702 | 18.89° C | 70% | 1014.2 hPa | 0 mm | - | - | - |
| 1778231402 | 19.44° C | 69% | 1014.2 hPa | 0 mm | - | - | - |
| 1778231101 | 18.89° C | 68% | 1014.2 hPa | 0 mm | - | - | - |
| 1778230801 | 19.44° C | 68% | 1014.2 hPa | 0 mm | - | - | - |
| 1778230501 | 19.44° C | 67% | 1014.2 hPa | 0 mm | - | - | - |
| 1778230202 | 19.44° C | 66% | 1014.2 hPa | 0 mm | - | - | - |
| 1778229902 | 19.44° C | 67% | 1014.3 hPa | 0 mm | - | - | - |
| 1778229602 | 19.44° C | 67% | 1014.2 hPa | 0 mm | - | - | - |
| 1778229301 | 19.44° C | 67% | 1014.1 hPa | 0 mm | - | - | - |
| 1778229002 | 19.44° C | 66% | 1014.1 hPa | 0 mm | - | - | - |
| 1778228702 | 20° C | 65% | 1013.9 hPa | 0 mm | - | - | - |
| 1778228401 | 20° C | 66% | 1013.9 hPa | 0 mm | - | - | - |
| 1778228102 | 19.44° C | 65% | 1013.8 hPa | 0 mm | - | - | - |
| 1778227802 | 20° C | 65% | 1013.7 hPa | 0 mm | - | - | - |
| 1778227502 | 20° C | 65% | 1013.6 hPa | 0 mm | - | - | - |
| 1778227202 | 19.44° C | 64% | 1013.6 hPa | 0 mm | - | - | - |
| 1778226901 | 20° C | 63% | 1013.4 hPa | 0 mm | - | - | - |
| 1778226602 | 19.44° C | 64% | 1013.5 hPa | 0 mm | - | - | - |
| 1778226301 | 18.89° C | 65% | 1013.5 hPa | 0 mm | - | - | - |
| 1778226001 | 19.44° C | 64% | 1013.6 hPa | 0 mm | - | - | - |
| 1778225702 | 19.44° C | 64% | 1013.5 hPa | 0 mm | - | - | - |
| 1778225402 | 19.44° C | 65% | 1013.5 hPa | 0 mm | - | - | - |
| 1778225102 | 18.89° C | 65% | 1013.4 hPa | 0 mm | - | - | - |
| 1778224802 | 18.89° C | 66% | 1013.5 hPa | 0 mm | - | - | - |
| 1778224501 | 18.33° C | 66% | 1013.5 hPa | 0 mm | - | - | - |
* Rain latest hour (hover to see other rain measurements)
** Current wind speed in m/s (hover to see current wind gust speed)